Regional Weather Roundup
Issued by NWS

Home | Current Version | Previous Version | Text Only | Print | Product List | Glossary On
Versions: 1 2 3 4 5 6 7 8 9 10 11 12 13 14 15 16 17 18 19 20 21 22 23 24 25 26 27 28 29 30 31 32 33 34 35 36 37 38 39 40 41 42 43 44 45 46 47 48 49 50
000
ASUS43 KOAX 032210
RWRNE

WEATHER ROUNDUP FOR NEBRASKA
NATIONAL WEATHER SERVICE OMAHA NE
500 PM CDT THU SEP 03 2015

NOTES: SATELLITE DATA IS BEING USED TO AUGMENT CLOUD COVER ABOVE
       12000 FEET.
       "FAIR" INDICATES FEW OR NO CLOUDS BELOW 12,000 FEET WITH NO
       SIGNIFICANT WEATHER AND/OR OBSTRUCTIONS TO VISIBILITY.

  * THESE STATIONS DO NOT REPORT WEATHER SUCH AS RAIN...SNOW OR FOG.

NEZ001>004-019>022-054>056-032300-
NEBRASKA PANHANDLE

CITY           SKY/WX    TMP DP  RH WIND       PRES   REMARKS
SCOTTSBLUFF    PTSUNNY   84  49  29 S7        29.86F
ALLIANCE       CLOUDY    87  48  25 SW14      29.84S
CHADRON        CLOUDY    97  44  16 SW10      29.75F HX  93
KIMBALL        CLOUDY    75  50  42 W10       29.94F
SIDNEY         CLOUDY    85  47  26 NW16      29.89F
$$

NEZ057>060-069>072-079>082-032300-
SOUTHWEST NEBRASKA

CITY           SKY/WX    TMP DP  RH WIND       PRES   REMARKS
NORTH PLATTE   MOSUNNY   91  62  37 SE7       29.76F HX  91
IMPERIAL       CLOUDY    94  52  24 SW6       29.78F HX  91
LEXINGTON      MOSUNNY   94  60  31 SE10      29.77F HX  93
MCCOOK         PTSUNNY   98  55  23 SE14G22   29.73F HX  96
OGALLALA       MOSUNNY   96  50  21 SE8       29.78F HX  93
$$

NEZ005>010-023>029-035>040-094-032300-
NORTH CENTRAL NEBRASKA

CITY           SKY/WX    TMP DP  RH WIND       PRES   REMARKS
VALENTINE      CLOUDY    96  56  26 E16       29.74F HX  94
AINSWORTH      CLOUDY    92  61  35 SE12      29.76S HX  92
BROKEN BOW     MOSUNNY   93  64  38 S16G23    29.78F HX  94
O`NEILL        PTSUNNY   88  71  56 SE13      29.77F HX  94
ORD            PTSUNNY   93  63  36 S16G25    29.75F HX  94
THEDFORD       PTSUNNY   95  60  30 S13       29.78S HX  94
$$

NEZ041-046>049-061>064-073>077-083>087-032300-
SOUTH CENTRAL NEBRASKA

CITY           SKY/WX    TMP DP  RH WIND       PRES   REMARKS
GRAND ISLAND   MOSUNNY   94  67  41 SE14      29.78F HX  97
AURORA         MOSUNNY   92  65  40 S15       29.78F HX  94
HASTINGS       MOSUNNY   96  62  32 S14       29.77F HX  97
HEBRON         MOSUNNY   94  58  29 S18G24    29.79S HX  93
HOLDREGE       MOSUNNY   95  55  26 S10       29.76F HX  93
KEARNEY *      MOSUNNY   97  63  32 SE13      29.77F HX  98
YORK           MOSUNNY   91  68  46 S13       29.79S HX  95
$$

NEZ011>018-030>034-042>045-032300-
NORTHEAST NEBRASKA

CITY           SKY/WX    TMP DP  RH WIND       PRES   REMARKS
NORFOLK        SUNNY     90  71  53 SE15G22   29.77F HX  96
ALBION         MOSUNNY   85  69  58 SE8       29.79S
BLAIR          SUNNY     90  69  51 SE14G20   29.81S HX  94
COLUMBUS *     MOSUNNY   91  70  49 SE10      29.77F HX  97
FREMONT        SUNNY     91  67  46 SE13G18   29.79F HX  94
TEKAMAH        SUNNY     90  74  59 S10       29.78F HX  99
WAYNE          SUNNY     87  74  64 SE14      29.79F HX  95
$$

NEZ050>053-065>068-078-088>093-032300-
SOUTHEAST NEBRASKA

CITY           SKY/WX    TMP DP  RH WIND       PRES   REMARKS
LINCOLN        SUNNY     95  68  41 S17       29.79F HX  99
OMAHA EPPLEY   MOSUNNY   93  70  46 S20       29.80F HX  99
BEATRICE       SUNNY     93  67  42 S17       29.81S HX  96
FALLS CITY     SUNNY     93  68  43 S13G25    29.83F HX  97
NEBRASKA CITY  SUNNY     91  62  37 S14G20    29.82F HX  91
PLATTSMOUTH    SUNNY     90  69  51 SE13      29.82S HX  94
$$

NEZ044-045-051>053-067-032300-
OMAHA AREA

CITY           SKY/WX    TMP DP  RH WIND       PRES   REMARKS
OMAHA EPPLEY   MOSUNNY   93  70  46 S20       29.80F HX  99
BLAIR          SUNNY     90  69  51 SE14G20   29.81S HX  94
FREMONT        SUNNY     91  67  46 SE13G18   29.79F HX  94
MILLARD        SUNNY     92  72  52 SE15      29.79F HX 100
OFFUTT AFB     SUNNY     91  72  53 SE18      29.80S HX  99
PLATTSMOUTH    SUNNY     90  69  51 SE13      29.82S HX  94
WAHOO          FAIR      91  73  53 S10       29.79F HX  99
$$



USA.gov is the U.S. government's official web portal to all federal, state and local government web resources and services.